Time,TemperatureF,DewpointF,PressureIn,WindDirection,WindDirectionDegrees,WindSpeedMPH,WindSpeedGustMPH,Humidity,HourlyPrecipIn,Conditions,Clouds,dailyrainin,SolarRadiationWatts/m^2,SoftwareType,DateUTC
2013-09-04 00:22:00,55.0,55.0,-100.00,WSW,247,1.0,2.0,99,0.00,,,0.00,0.000000,,2013-09-04 07:22:00,
2013-09-04 00:32:00,55.0,55.0,-100.00,WSW,247,1.0,2.0,99,0.00,,,0.00,0.000000,,2013-09-04 07:32:00,
2013-09-04 00:42:00,55.0,55.0,-100.00,WSW,247,1.0,2.0,99,0.00,,,0.00,0.000000,,2013-09-04 07:42:00,
2013-09-04 00:50:00,54.0,54.0,-100.00,NE,49,1.0,2.0,100,0.00,,,0.00,0.000000,,2013-09-04 07:50:00,
2013-09-04 01:22:00,54.0,54.0,-100.00,NE,49,1.0,2.0,100,0.00,,,0.00,0.000000,,2013-09-04 08:22:00,
2013-09-04 01:32:00,54.0,54.0,-100.00,NE,49,1.0,2.0,100,0.00,,,0.00,0.000000,,2013-09-04 08:32:00,
2013-09-04 01:43:00,54.0,54.0,-100.00,NE,49,1.0,2.0,100,0.00,,,0.00,0.000000,,2013-09-04 08:43:00,
2013-09-04 01:50:00,54.0,54.0,-100.00,NNE,28,1.0,2.0,100,0.00,,,0.00,0.000000,,2013-09-04 08:50:00,
2013-09-04 02:22:00,54.0,54.0,-100.00,NNE,28,1.0,2.0,100,0.00,,,0.00,0.000000,,2013-09-04 09:22:00,
2013-09-04 02:33:00,54.0,54.0,-100.00,NNE,28,1.0,2.0,100,0.00,,,0.00,0.000000,,2013-09-04 09:33:00,
2013-09-04 02:43:00,54.0,54.0,-100.00,NNE,28,1.0,2.0,100,0.00,,,0.00,0.000000,,2013-09-04 09:43:00,
2013-09-04 02:50:00,52.0,52.0,-100.00,West,279,1.0,2.0,100,0.00,,,0.00,0.000000,,2013-09-04 09:50:00,
2013-09-04 03:23:00,52.0,52.0,-100.00,West,279,1.0,2.0,100,0.00,,,0.00,0.000000,,2013-09-04 10:23:00,
2013-09-04 03:32:00,52.0,52.0,-100.00,West,279,1.0,2.0,100,0.00,,,0.00,0.000000,,2013-09-04 10:32:00,
2013-09-04 03:42:00,52.0,52.0,-100.00,West,279,1.0,2.0,100,0.00,,,0.00,0.000000,,2013-09-04 10:42:00,
2013-09-04 03:50:00,53.0,53.0,-100.00,SSW,205,1.0,2.0,100,0.00,,,0.00,0.000000,,2013-09-04 10:50:00,
2013-09-04 04:22:00,53.0,53.0,-100.00,SSW,205,1.0,2.0,100,0.00,,,0.00,0.000000,,2013-09-04 11:22:00,
2013-09-04 04:32:00,53.0,53.0,-100.00,SSW,205,1.0,2.0,100,0.00,,,0.00,0.000000,,2013-09-04 11:32:00,
2013-09-04 04:42:00,53.0,53.0,-100.00,SSW,205,1.0,2.0,100,0.00,,,0.00,0.000000,,2013-09-04 11:42:00,
2013-09-04 04:50:00,53.0,53.0,-100.00,SSE,155,1.0,2.0,100,0.00,,,0.00,0.000000,,2013-09-04 11:50:00,
2013-09-04 05:21:00,53.0,53.0,-100.00,SSE,155,1.0,2.0,100,0.00,,,0.00,0.000000,,2013-09-04 12:21:00,
2013-09-04 05:32:00,53.0,53.0,-100.00,SSE,155,1.0,2.0,100,0.00,,,0.00,0.000000,,2013-09-04 12:32:00,
2013-09-04 05:42:00,53.0,53.0,-100.00,SSE,155,1.0,2.0,100,0.00,,,0.00,0.000000,,2013-09-04 12:42:00,
2013-09-04 05:50:00,52.0,52.0,-100.00,ENE,76,1.0,2.0,100,0.00,,,0.00,0.000000,,2013-09-04 12:50:00,
2013-09-04 06:21:00,52.0,52.0,-100.00,ENE,76,1.0,2.0,100,0.00,,,0.00,0.000000,,2013-09-04 13:21:00,
2013-09-04 06:31:00,52.0,52.0,-100.00,ENE,76,1.0,2.0,100,0.00,,,0.00,0.000000,,2013-09-04 13:31:00,
2013-09-04 06:42:00,52.0,52.0,-100.00,ENE,76,1.0,2.0,100,0.00,,,0.00,0.000000,,2013-09-04 13:42:00,
2013-09-04 06:50:00,54.0,54.0,-100.00,NNE,22,0.0,2.0,100,0.00,,,0.00,0.000000,,2013-09-04 13:50:00,
2013-09-04 07:21:00,54.0,54.0,-100.00,NNE,22,0.0,2.0,100,0.00,,,0.00,0.000000,,2013-09-04 14:21:00,
2013-09-04 07:32:00,54.0,54.0,-100.00,NNE,22,0.0,2.0,100,0.00,,,0.00,0.000000,,2013-09-04 14:32:00,
2013-09-04 07:42:00,54.0,54.0,-100.00,NNE,22,0.0,2.0,100,0.00,,,0.00,0.000000,,2013-09-04 14:42:00,
2013-09-04 07:50:00,55.0,55.0,-100.00,NW,314,0.0,2.0,100,0.00,,,0.00,29.000000,,2013-09-04 14:50:00,
2013-09-04 08:22:00,55.0,55.0,-100.00,NW,314,0.0,2.0,100,0.00,,,0.00,29.000000,,2013-09-04 15:22:00,
2013-09-04 08:33:00,55.0,55.0,-100.00,NW,314,0.0,2.0,100,0.00,,,0.00,29.000000,,2013-09-04 15:33:00,
2013-09-04 08:43:00,55.0,55.0,-100.00,NW,314,0.0,2.0,100,0.00,,,0.00,29.000000,,2013-09-04 15:43:00,
2013-09-04 08:50:00,61.0,58.0,-100.00,SW,231,1.0,2.0,91,0.00,,,0.00,109.000000,,2013-09-04 15:50:00,
2013-09-04 09:23:00,61.0,58.0,-100.00,SW,231,1.0,2.0,91,0.00,,,0.00,109.000000,,2013-09-04 16:23:00,
2013-09-04 09:34:00,61.0,58.0,-100.00,SW,231,1.0,2.0,91,0.00,,,0.00,109.000000,,2013-09-04 16:34:00,
2013-09-04 09:43:00,61.0,58.0,-100.00,SW,231,1.0,2.0,91,0.00,,,0.00,109.000000,,2013-09-04 16:43:00,
2013-09-04 09:50:00,62.0,56.0,-100.00,NE,46,1.0,4.0,81,0.00,,,0.00,114.000000,,2013-09-04 16:50:00,
2013-09-04 10:22:00,62.0,56.0,-100.00,NE,46,1.0,4.0,81,0.00,,,0.00,114.000000,,2013-09-04 17:22:00,
2013-09-04 10:34:00,62.0,56.0,-100.00,NE,46,1.0,4.0,81,0.00,,,0.00,114.000000,,2013-09-04 17:34:00,
2013-09-04 10:42:00,62.0,56.0,-100.00,NE,46,1.0,4.0,81,0.00,,,0.00,114.000000,,2013-09-04 17:42:00,
2013-09-04 11:50:00,77.0,57.0,-100.00,SSE,157,3.0,10.0,50,-99.99,,,0.00,754.000000,,2013-09-04 18:50:00,
2013-09-04 12:42:00,77.0,57.0,-100.00,SSE,157,3.0,10.0,50,-99.99,,,0.00,754.000000,,2013-09-04 19:42:00,
2013-09-04 12:50:00,77.0,55.0,-100.00,North,4,2.0,15.0,47,0.00,,,0.00,715.000000,,2013-09-04 19:50:00,
2013-09-04 13:22:00,77.0,55.0,-100.00,North,4,2.0,15.0,47,0.00,,,0.00,715.000000,,2013-09-04 20:22:00,
2013-09-04 13:32:00,77.0,55.0,-100.00,North,4,2.0,15.0,47,0.00,,,0.00,715.000000,,2013-09-04 20:32:00,
2013-09-04 13:43:00,77.0,55.0,-100.00,North,4,2.0,15.0,47,0.00,,,0.00,715.000000,,2013-09-04 20:43:00,
2013-09-04 14:50:00,78.0,58.0,-100.00,NW,325,4.0,12.0,51,-99.99,,,0.00,624.000000,,2013-09-04 21:50:00,
2013-09-04 15:23:00,78.0,58.0,-100.00,NW,325,4.0,12.0,51,-99.99,,,0.00,624.000000,,2013-09-04 22:23:00,
2013-09-04 15:33:00,78.0,58.0,-100.00,NW,325,4.0,12.0,51,-99.99,,,0.00,624.000000,,2013-09-04 22:33:00,
2013-09-04 15:43:00,78.0,58.0,-100.00,NW,325,4.0,12.0,51,-99.99,,,0.00,624.000000,,2013-09-04 22:43:00,
2013-09-04 15:50:00,79.0,57.0,-100.00,WSW,240,2.0,13.0,47,0.00,,,0.00,703.000000,,2013-09-04 22:50:00,
2013-09-04 16:42:00,79.0,57.0,-100.00,WSW,240,2.0,13.0,47,0.00,,,0.00,703.000000,,2013-09-04 23:42:00,
2013-09-04 16:50:00,73.0,55.0,-100.00,NW,324,2.0,12.0,53,0.00,,,0.00,363.000000,,2013-09-04 23:50:00,
2013-09-04 17:22:00,73.0,55.0,-100.00,NW,324,2.0,12.0,53,0.00,,,0.00,363.000000,,2013-09-05 00:22:00,
2013-09-04 17:32:00,73.0,55.0,-100.00,NW,324,2.0,12.0,53,0.00,,,0.00,363.000000,,2013-09-05 00:32:00,
2013-09-04 17:42:00,73.0,55.0,-100.00,NW,324,2.0,12.0,53,0.00,,,0.00,363.000000,,2013-09-05 00:42:00,
2013-09-04 17:50:00,73.0,55.0,-100.00,NW,320,3.0,9.0,53,0.00,,,0.00,328.000000,,2013-09-05 00:50:00,
2013-09-04 18:21:00,73.0,55.0,-100.00,NW,320,3.0,9.0,53,0.00,,,0.00,328.000000,,2013-09-05 01:21:00,
2013-09-04 18:32:00,73.0,55.0,-100.00,NW,320,3.0,9.0,53,0.00,,,0.00,328.000000,,2013-09-05 01:32:00,
2013-09-04 18:42:00,73.0,55.0,-100.00,NW,320,3.0,9.0,53,0.00,,,0.00,328.000000,,2013-09-05 01:42:00,
2013-09-04 18:50:00,68.0,57.0,-100.00,WNW,302,1.0,12.0,67,0.00,,,0.00,56.000000,,2013-09-05 01:50:00,
2013-09-04 19:22:00,68.0,57.0,-100.00,WNW,302,1.0,12.0,67,0.00,,,0.00,56.000000,,2013-09-05 02:22:00,
2013-09-04 19:32:00,68.0,57.0,-100.00,WNW,302,1.0,12.0,67,0.00,,,0.00,56.000000,,2013-09-05 02:32:00,
2013-09-04 19:42:00,68.0,57.0,-100.00,WNW,302,1.0,12.0,67,0.00,,,0.00,56.000000,,2013-09-05 02:42:00,
2013-09-04 19:50:00,64.0,57.0,-100.00,South,182,1.0,6.0,78,0.00,,,0.00,16.000000,,2013-09-05 02:50:00,
2013-09-04 20:22:00,64.0,57.0,-100.00,South,182,1.0,6.0,78,0.00,,,0.00,16.000000,,2013-09-05 03:22:00,
2013-09-04 20:34:00,64.0,57.0,-100.00,South,182,1.0,6.0,78,0.00,,,0.00,16.000000,,2013-09-05 03:34:00,
2013-09-04 20:45:00,64.0,57.0,-100.00,South,182,1.0,6.0,78,0.00,,,0.00,16.000000,,2013-09-05 03:45:00,
2013-09-04 20:50:00,59.0,55.0,-100.00,North,352,1.0,3.0,88,0.00,,,0.00,0.000000,,2013-09-05 03:50:00,
2013-09-04 21:24:00,59.0,55.0,-100.00,North,352,1.0,3.0,88,0.00,,,0.00,0.000000,,2013-09-05 04:24:00,
2013-09-04 21:34:00,59.0,55.0,-100.00,North,352,1.0,3.0,88,0.00,,,0.00,0.000000,,2013-09-05 04:34:00,
2013-09-04 21:44:00,59.0,55.0,-100.00,North,352,1.0,3.0,88,0.00,,,0.00,0.000000,,2013-09-05 04:44:00,
2013-09-04 21:50:00,56.0,55.0,-100.00,North,11,1.0,2.0,95,0.00,,,0.00,0.000000,,2013-09-05 04:50:00,
2013-09-04 22:23:00,56.0,55.0,-100.00,North,11,1.0,2.0,95,0.00,,,0.00,0.000000,,2013-09-05 05:23:00,
2013-09-04 22:34:00,56.0,55.0,-100.00,North,11,1.0,2.0,95,0.00,,,0.00,0.000000,,2013-09-05 05:34:00,
2013-09-04 22:43:00,56.0,55.0,-100.00,North,11,1.0,2.0,95,0.00,,,0.00,0.000000,,2013-09-05 05:43:00,
2013-09-04 22:50:00,56.0,55.0,-100.00,ESE,119,1.0,2.0,97,0.00,,,0.00,0.000000,,2013-09-05 05:50:00,
2013-09-04 23:21:00,56.0,55.0,-100.00,ESE,119,1.0,2.0,97,0.00,,,0.00,0.000000,,2013-09-05 06:21:00,
2013-09-04 23:32:00,56.0,55.0,-100.00,ESE,119,1.0,2.0,97,0.00,,,0.00,0.000000,,2013-09-05 06:32:00,
2013-09-04 23:42:00,56.0,55.0,-100.00,ESE,119,1.0,2.0,97,0.00,,,0.00,0.000000,,2013-09-05 06:42:00,
2013-09-04 23:50:00,56.0,55.0,-100.00,ESE,102,0.0,2.0,95,0.00,,,0.00,0.000000,,2013-09-05 06:50:00,